Location: *
(0.1100°N, 5.5000°E)
Time: 00:34:35
(UTC+00:00)

ARIANE DEB (SYLDA) - Visible Passes

Search period start: 05 June 2023 00:00
Search period end: 15 June 2023 00:00
Orbit: 621 x 35644 km, 6.4° (Epoch: 04 June)

Date Brightness Start Highest point End Pass type
(mag) Time Alt. Az. Time Alt. Az. Time Alt. Az.
05 Jun 6.8 17:20:48 10° W 19:08:20 74° W 03:20:06 10° E visible
06 Jun 7.3 14:20:56 10° WSW 21:10:54 85° N 00:22:49 10° E visible
07 Jun 5.7 13:51:36 10° E 19:30:41 44° E 21:14:01 10° E visible
08 Jun 9.8 20:03:56 10° W 21:35:55 32° W 01:23:08 10° W visible
09 Jun 3.8 05:16:42 10° W 05:37:44 88° N 05:42:12 10° E visible
09 Jun 6.8 16:47:05 10° W 18:33:54 81° W 02:47:33 10° E visible
10 Jun 7.0 13:48:16 10° WSW 21:36:21 83° NNE 23:49:30 10° E visible
11 Jun 5.1 10:53:29 10° WSW 18:57:55 38° E 20:37:14 10° E visible
12 Jun 6.3 19:25:47 10° W 21:03:10 38° W 05:09:46 10° E visible
13 Jun 6.9 16:13:34 10° W 17:57:25 88° WNW 02:14:56 10° E visible
14 Jun 6.7 13:15:40 10° WSW 21:20:55 79° NE 23:16:00 10° E visible
